Tracking 34352 objects as of 8-Jun-2026
HD Live streaming from Space Station
objects crossing your sky now

THORAD AGENA D DEB

Track THORAD AGENA D DEB now!
10-day predictions


NORAD ID: 4710
Int'l Code: 1970-025BY
Perigee: 1,054.0 km
Apogee: 1,061.0 km
Inclination: 100.2 °
Period: 106.2 minutes
Semi major axis: 7428 km
RCS: 0.052 m2 (small)
Launch date: April 8, 1970
Source: United States (US)
Launch site: AIR FORCE WESTERN TEST RANGE (AFWTR)

Note: This is SATELLITE DEBRIS
Your satellite tracking list
Your tracking list is empty




NASA's NSSDC Master Catalog

Two Line Element Set (TLE):
1 04710U 70025BY  26158.94598838  .00000132  00000-0  25682-3 0  9994
2 04710 100.1814 171.9398 0004737 183.2719 240.1873 13.55975360772284
Source of the keplerian elements: AFSPC